Regional Weather Roundup
Issued by NWS

Home | Current Version | Previous Version | Graphics & Text | Print | Product List | Glossary On
Versions: 1 2 3 4 5 6 7 8 9 10 11 12 13 14 15 16 17 18 19 20 21 22 23 24 25 26 27 28 29 30 31 32 33 34 35 36 37 38 39 40 41 42 43 44 45 46 47 48 49 50
000
ASUS43 KBIS 220531
RWRND
NORTH DAKOTA REGIONAL WEATHER ROUNDUP
NATIONAL WEATHER SERVICE EASTERN NORTH DAKOTA/GRAND FORKS ND
1200 AM CDT SUN APR 22 2018

  NOTE: "FAIR" INDICATES FEW OR NO CLOUDS BELOW 12,000 FEET WITH NO
  SIGNIFICANT WEATHER AND/OR OBSTRUCTIONS TO VISIBILITY.

NDZ001>003-009>011-017-220600-
...NORTHWEST NORTH DAKOTA...

CITY           SKY/WX    TMP DP  RH WIND       PRES   REMARKS
WILLISTON      FAIR      52  39  61 S10G20    29.98R
MINOT          FAIR      48  37  65 S23       30.06F
MINOT AFB      FAIR      47  37  68 S22       30.04F
$$

NDZ018>021-031>035-040>046-220600-
...SOUTHWEST NORTH DAKOTA...

CITY           SKY/WX    TMP DP  RH WIND       PRES   REMARKS
BISMARCK       FAIR      46  35  65 S15       30.19R
DICKINSON      FAIR      42  37  82 S18G28    30.06F
GARRISON         N/A     43  36  76 S14       30.11F
HETTINGER      FAIR      40  35  83 SE12      30.13F WCI  33
$$

NDZ004>008-012>016-024-026-027-054-220600-
...NORTHEAST NORTH DAKOTA...

CITY           SKY/WX    TMP DP  RH WIND       PRES   REMARKS
GRAND FORKS    FAIR      46  43  89 S12       30.22F
GRAND FORKS AF FAIR      46  42  87 S12       30.21F
DEVILS LAKE    FAIR      46  35  65 S14       30.18F
$$

NDZ022-023-025-028>030-036>039-047>053-220600-
...SOUTHEAST NORTH DAKOTA...

CITY           SKY/WX    TMP DP  RH WIND       PRES   REMARKS
JAMESTOWN      FAIR      41  35  79 S9        30.22F
FARGO          FAIR      47  40  76 S13       30.27S
WAHPETON       FAIR      39  34  81 S7        30.29F WCI  34
$$




USA.gov is the U.S. government's official web portal to all federal, state and local government web resources and services.